• In Deutschland
  • Länderverzeichnis
  • Für 7 Tage
  • Wassertemperatur
  • Satellitenkarten
  • Wetterkarte
  • Widgets
  • user-avatar
    Anmelden

    Stündliche Wetter Bujumbura

    Heute, 18 Juni, Montag

    Zeit Temperatur Niederschläge Wind Luftdruck Luftfeuchtigkeit
    00:00 +21°C° 0 mm 0 m/S 692 mmHg 84%
    01:00 +22°C° 0 mm 1 m/S 692 mmHg 85%
    02:00 +22°C° 0 mm 1 m/S 692 mmHg 87%
    03:00 +22°C° 0 mm 1 m/S 692 mmHg 87%
    04:00 +21°C° 0 mm 1 m/S 692 mmHg 87%
    05:00 +21°C° 0 mm 1 m/S 692 mmHg 87%
    06:00 +23°C° 0 mm 1 m/S 692 mmHg 79%
    07:00 +25°C° 0 mm 1 m/S 693 mmHg 71%
    08:00 +27°C° 0 mm 1 m/S 693 mmHg 61%
    09:00 +28°C° 0 mm 1 m/S 693 mmHg 56%
    10:00 +29°C° 0 mm 2 m/S 693 mmHg 52%
    11:00 +30°C° 0 mm 2 m/S 693 mmHg 48%
    12:00 +31°C° 0 mm 2 m/S 692 mmHg 48%
    13:00 +31°C° 0 mm 2 m/S 692 mmHg 48%
    14:00 +31°C° 0 mm 2 m/S 691 mmHg 50%
    15:00 +30°C° 0 mm 2 m/S 691 mmHg 54%
    16:00 +29°C° 0 mm 2 m/S 691 mmHg 58%
    17:00 +28°C° 0 mm 1 m/S 691 mmHg 62%
    18:00 +27°C° 0,1 mm 1 m/S 691 mmHg 68%
    19:00 +25°C° 0,1 mm 1 m/S 692 mmHg 74%
    20:00 +22°C° 0,1 mm 0 m/S 692 mmHg 80%
    21:00 +22°C° 0,1 mm 0 m/S 692 mmHg 81%
    22:00 +21°C° 0,1 mm 0 m/S 692 mmHg 83%
    23:00 +21°C° 0,1 mm 0 m/S 693 mmHg 85%

    Morgen, 19 Juni, Dienstag

    Zeit Temperatur Niederschläge Wind Luftdruck Luftfeuchtigkeit
    00:00 +21°C° 0,1 mm 0 m/S 692 mmHg 85%
    01:00 +21°C° 0,1 mm 0 m/S 692 mmHg 85%
    02:00 +21°C° 0,1 mm 0 m/S 692 mmHg 86%
    03:00 +21°C° 0 mm 0 m/S 692 mmHg 86%
    04:00 +20°C° 0 mm 0 m/S 692 mmHg 87%
    05:00 +20°C° 0 mm 0 m/S 692 mmHg 87%
    06:00 +21°C° 0 mm 0 m/S 693 mmHg 83%
    07:00 +22°C° 0 mm 0 m/S 693 mmHg 78%
    08:00 +25°C° 0 mm 1 m/S 693 mmHg 74%
    09:00 +27°C° 0 mm 1 m/S 693 mmHg 66%
    10:00 +28°C° 0 mm 2 m/S 693 mmHg 58%
    11:00 +30°C° 0 mm 2 m/S 693 mmHg 51%
    12:00 +30°C° 0 mm 2 m/S 693 mmHg 52%
    13:00 +29°C° 0 mm 2 m/S 692 mmHg 54%
    14:00 +29°C° 0 mm 2 m/S 692 mmHg 56%
    15:00 +29°C° 0 mm 2 m/S 692 mmHg 58%
    16:00 +28°C° 0 mm 2 m/S 691 mmHg 61%
    17:00 +28°C° 0 mm 2 m/S 691 mmHg 63%
    18:00 +26°C° 0 mm 1 m/S 691 mmHg 69%
    19:00 +25°C° 0 mm 1 m/S 692 mmHg 74%
    20:00 +23°C° 0 mm 1 m/S 692 mmHg 80%
    21:00 +23°C° 0 mm 1 m/S 693 mmHg 81%
    22:00 +23°C° 0 mm 1 m/S 693 mmHg 81%
    23:00 +23°C° 0 mm 1 m/S 693 mmHg 82%

    übermorgen, 20 Juni, Mittwoch

    Zeit Temperatur Niederschläge Wind Luftdruck Luftfeuchtigkeit
    00:00 +23°C° 0 mm 1 m/S 693 mmHg 83%
    01:00 +22°C° 0 mm 1 m/S 693 mmHg 83%
    02:00 +22°C° 0 mm 1 m/S 693 mmHg 84%
    03:00 +22°C° 0 mm 1 m/S 692 mmHg 83%
    04:00 +22°C° 0 mm 1 m/S 692 mmHg 82%
    05:00 +22°C° 0 mm 1 m/S 692 mmHg 81%
    06:00 +23°C° 0 mm 1 m/S 693 mmHg 75%
    07:00 +25°C° 0 mm 1 m/S 693 mmHg 69%
    08:00 +26°C° 0 mm 1 m/S 694 mmHg 62%
    09:00 +28°C° 0 mm 1 m/S 694 mmHg 56%
    10:00 +29°C° 0 mm 2 m/S 694 mmHg 50%
    11:00 +31°C° 0 mm 2 m/S 694 mmHg 44%
    12:00 +31°C° 0 mm 2 m/S 694 mmHg 44%
    13:00 +31°C° 0 mm 2 m/S 693 mmHg 45%
    14:00 +31°C° 0 mm 2 m/S 692 mmHg 45%
    15:00 +30°C° 0,1 mm 2 m/S 692 mmHg 49%
    16:00 +30°C° 0,1 mm 2 m/S 692 mmHg 53%
    17:00 +29°C° 0,1 mm 1 m/S 691 mmHg 57%
    18:00 +27°C° 0,1 mm 1 m/S 692 mmHg 62%
    19:00 +26°C° 0,1 mm 1 m/S 692 mmHg 67%
    20:00 +22°C° 0,1 mm 0 m/S 693 mmHg 73%
    21:00 +22°C° 0,1 mm 0 m/S 693 mmHg 74%
    22:00 +22°C° 0,1 mm 0 m/S 694 mmHg 75%
    23:00 +22°C° 0,1 mm 0 m/S 694 mmHg 76%

    21 Juni, Donnerstag

    Zeit Temperatur Niederschläge Wind Luftdruck Luftfeuchtigkeit
    00:00 +24°C° 0,2 mm 1 m/S 694 mmHg 78%
    01:00 +23°C° 0,2 mm 1 m/S 693 mmHg 80%
    02:00 +23°C° 0,2 mm 1 m/S 693 mmHg 81%
    03:00 +23°C° 0,2 mm 1 m/S 693 mmHg 81%
    04:00 +23°C° 0,2 mm 1 m/S 693 mmHg 81%
    05:00 +23°C° 0,2 mm 1 m/S 693 mmHg 81%
    06:00 +23°C° 0,2 mm 1 m/S 693 mmHg 79%
    07:00 +24°C° 0,2 mm 1 m/S 694 mmHg 77%
    08:00 +24°C° 0,2 mm 1 m/S 695 mmHg 75%
    09:00 +26°C° 0 mm 1 m/S 695 mmHg 69%
    10:00 +27°C° 0 mm 1 m/S 695 mmHg 63%
    11:00 +29°C° 0 mm 2 m/S 695 mmHg 56%
    12:00 +29°C° 0 mm 2 m/S 694 mmHg 54%
    13:00 +30°C° 0 mm 2 m/S 693 mmHg 52%
    14:00 +30°C° 0 mm 2 m/S 692 mmHg 50%
    15:00 +29°C° 0 mm 2 m/S 692 mmHg 54%
    16:00 +29°C° 0 mm 2 m/S 692 mmHg 58%
    17:00 +28°C° 0 mm 1 m/S 692 mmHg 62%
    18:00 +26°C° 0 mm 1 m/S 692 mmHg 67%
    19:00 +25°C° 0 mm 1 m/S 693 mmHg 73%
    20:00 +21°C° 0 mm 0 m/S 693 mmHg 78%
    21:00 +21°C° 0 mm 0 m/S 694 mmHg 78%
    22:00 +21°C° 0 mm 0 m/S 694 mmHg 78%
    23:00 +21°C° 0 mm 0 m/S 694 mmHg 78%

    22 Juni, Freitag

    Zeit Temperatur Niederschläge Wind Luftdruck Luftfeuchtigkeit
    00:00 +23°C° 0 mm 1 m/S 694 mmHg 78%
    01:00 +23°C° 0 mm 1 m/S 693 mmHg 79%
    02:00 +23°C° 0 mm 1 m/S 693 mmHg 79%
    03:00 +22°C° 0,1 mm 1 m/S 693 mmHg 79%
    04:00 +22°C° 0,1 mm 1 m/S 693 mmHg 80%
    05:00 +22°C° 0,1 mm 1 m/S 693 mmHg 80%
    06:00 +23°C° 0,1 mm 1 m/S 694 mmHg 78%
    07:00 +24°C° 0,1 mm 1 m/S 695 mmHg 76%
    08:00 +24°C° 0,1 mm 1 m/S 695 mmHg 73%
    09:00 +25°C° 0,2 mm 1 m/S 695 mmHg 73%
    10:00 +25°C° 0,2 mm 1 m/S 695 mmHg 73%
    11:00 +26°C° 0,2 mm 1 m/S 695 mmHg 72%
    12:00 +26°C° 0,2 mm 1 m/S 694 mmHg 70%
    13:00 +27°C° 0,2 mm 2 m/S 693 mmHg 67%
    14:00 +28°C° 0,2 mm 2 m/S 692 mmHg 64%
    15:00 +28°C° 0,2 mm 1 m/S 692 mmHg 64%
    16:00 +28°C° 0,2 mm 1 m/S 692 mmHg 64%
    17:00 +28°C° 0,2 mm 1 m/S 692 mmHg 64%
    18:00 +26°C° 0,2 mm 1 m/S 692 mmHg 70%
    19:00 +24°C° 0,2 mm 1 m/S 693 mmHg 77%
    20:00 +23°C° 0,2 mm 1 m/S 693 mmHg 84%
    21:00 +23°C° 0,2 mm 1 m/S 694 mmHg 84%
    22:00 +22°C° 0,2 mm 1 m/S 694 mmHg 84%
    23:00 +22°C° 0,2 mm 1 m/S 694 mmHg 85%

    23 Juni, Samstag

    Zeit Temperatur Niederschläge Wind Luftdruck Luftfeuchtigkeit
    00:00 +22°C° 0 mm 1 m/S 693 mmHg 85%
    01:00 +22°C° 0 mm 1 m/S 693 mmHg 85%
    02:00 +21°C° 0 mm 1 m/S 692 mmHg 85%
    03:00 +21°C° 0 mm 1 m/S 693 mmHg 85%
    04:00 +21°C° 0 mm 1 m/S 693 mmHg 85%
    05:00 +21°C° 0 mm 1 m/S 693 mmHg 84%
    06:00 +23°C° 0 mm 1 m/S 693 mmHg 79%
    07:00 +24°C° 0 mm 1 m/S 694 mmHg 74%
    08:00 +26°C° 0 mm 1 m/S 695 mmHg 68%
    09:00 +27°C° 0 mm 1 m/S 694 mmHg 65%
    10:00 +28°C° 0 mm 2 m/S 694 mmHg 61%
    11:00 +29°C° 0 mm 2 m/S 694 mmHg 57%
    12:00 +29°C° 0 mm 2 m/S 693 mmHg 57%
    13:00 +29°C° 0 mm 2 m/S 693 mmHg 56%
    14:00 +30°C° 0 mm 2 m/S 692 mmHg 55%
    15:00 +29°C° 0,1 mm 2 m/S 692 mmHg 57%
    16:00 +29°C° 0,1 mm 1 m/S 692 mmHg 60%
    17:00 +28°C° 0,1 mm 1 m/S 692 mmHg 63%
    18:00 +26°C° 0,1 mm 1 m/S 692 mmHg 69%
    19:00 +25°C° 0,1 mm 1 m/S 693 mmHg 75%
    20:00 +23°C° 0,1 mm 1 m/S 693 mmHg 81%
    21:00 +23°C° 0 mm 1 m/S 693 mmHg 81%
    22:00 +22°C° 0 mm 1 m/S 693 mmHg 82%
    23:00 +22°C° 0 mm 1 m/S 693 mmHg 83%
    Mehr zeigen